KC8YVF-1 Weather Reports


Display with metric or nautical units.
time (UTC)temp
F
wind
direction
speed
MPH
gust
MPH
rain 1hr
in
rain 24hr
in
rain mn
in
humidity
%
barometer
mb
20190120193611 14 315 2.0 8.0 0.00 0.04 0.00 59 1008.9
20190120192111 15 0 3.0 5.0 0.00 0.04 0.00 60 1008.8
20190120191741 15 90 1.0 1.0 0.00 0.04 0.00 60 1008.8
20190120190611 15 0 5.0 7.0 0.00 0.04 0.00 60 1008.8
20190120185111 15 338 2.0 9.0 0.00 0.04 0.00 61 1008.8
20190120183611 15 338 5.0 10.0 0.00 0.04 0.00 62 1008.8
20190120182740 14 0 1.0 3.0 0.00 0.04 0.00 62 1008.9
20190120182112 15 338 6.0 7.0 0.00 0.04 0.00 62 1008.8
20190120181739 15 23 1.0 0.0 0.00 0.04 0.00 62 1008.8
20190120180613 15 338 7.0 10.0 0.00 0.04 0.00 63 1008.9
20190120175239 14 338 3.0 7.0 0.00 0.04 0.00 63 1008.9
20190120175111 14 0 0.0 0.0 0.00 0.04 0.00 63 1008.8
20190120173612 14 23 2.0 5.0 0.00 0.04 0.00 63 1009.1
20190120172740 13 338 5.0 10.0 0.00 0.04 0.00 64 1009.1
20190120172113 13 23 8.0 12.0 0.00 0.04 0.00 64 1009.3
20190120170611 14 338 6.0 12.0 0.00 0.04 0.00 65 1009.4
20190120165111 14 0 3.0 5.0 0.00 0.04 0.00 67 1009.4
20190120163611 12 0 6.0 8.0 0.00 0.04 0.00 68 1009.2
20190120162111 12 338 9.0 10.0 0.00 0.04 0.00 69 1009.1
20190120160612 11 315 7.0 6.0 0.00 0.04 0.00 72 1009.1
20190120155112 9 338 6.0 8.0 0.00 0.04 0.00 73 1008.8
20190120153612 7 338 6.0 8.0 0.00 0.04 0.00 73 1008.8
20190120152112 6 0 5.0 7.0 0.00 0.04 0.00 74 1008.4
20190120150613 5 0 3.0 5.0 0.00 0.04 0.00 75 1008.1
20190120145112 5 338 9.0 9.0 0.00 0.04 0.00 76 1008.1
20190120143613 3 338 8.0 9.0 0.00 0.04 0.00 77 1007.7
20190120142112 2 338 7.0 10.0 0.00 0.04 0.00 77 1007.4
20190120141240 1 338 7.0 10.0 0.00 0.04 0.00 77 1007.4
20190120140611 1 338 6.0 7.0 0.00 0.04 0.00 77 1007.4
20190120135111 0 338 6.0 7.0 0.00 0.04 0.00 77 1007.1
20190120133612 0 315 6.0 7.0 0.00 0.04 0.00 77 1007.1
20190120132111 0 0 0.0 0.0 0.00 0.04 0.00 77 1006.7
20190120130612 0 338 8.0 9.0 0.00 0.04 0.00 77 1006.4
20190120125111 0 338 5.0 6.0 0.00 0.04 0.00 76 1006.4
20190120123612 0 0 6.0 7.0 0.00 0.04 0.00 76 1006.0
20190120122112 0 338 7.0 8.0 0.00 0.04 0.00 76 1005.8
20190120120613 0 338 7.0 8.0 0.00 0.04 0.00 76 1005.7
20190120115113 0 338 5.0 7.0 0.00 0.04 0.00 76 1005.4
20190120114240 0 338 7.0 9.0 0.00 0.04 0.00 76 1005.4
20190120113612 0 338 5.0 10.0 0.00 0.04 0.00 76 1005.2
20190120112113 0 338 9.0 9.0 0.00 0.04 0.00 76 1004.7
20190120110613 1 0 7.0 9.0 0.00 0.04 0.00 77 1004.7
20190120110240 0 338 10.0 14.0 0.00 0.04 0.00 77 1004.5
20190120105112 0 338 7.0 10.0 0.00 0.04 0.00 77 1004.5
20190120103613 0 0 0.0 0.0 0.00 0.04 0.00 77 1004.4
20190120102112 0 0 2.0 3.0 0.00 0.04 0.00 76 1004.4
20190120100612 0 338 6.0 8.0 0.00 0.04 0.00 76 1004.0
20190120095111 0 338 5.0 8.0 0.00 0.04 0.00 76 1003.7
20190120093611 0 0 3.0 8.0 0.00 0.04 0.00 76 1003.7
20190120092741 0 338 6.0 9.0 0.00 0.04 0.00 76 1003.7
20190120092112 0 338 8.0 12.0 0.00 0.04 0.00 76 1003.7
20190120090739 1 338 10.0 16.0 0.00 0.04 0.00 76 1003.3
20190120090613 1 338 10.0 16.0 0.00 0.04 0.00 76 1003.3
20190120085112 1 0 3.0 8.0 0.00 0.04 0.00 76 1003.3
20190120083612 1 315 5.0 13.0 0.00 0.04 0.00 76 1003.3
20190120082112 1 338 8.0 9.0 0.00 0.04 0.00 76 1003.3
20190120080611 1 338 5.0 9.0 0.00 0.04 0.00 76 1003.3
20190120075159 2 338 8.0 12.0 0.00 0.04 0.00 76 1003.0
20190120075112 2 338 8.0 12.0 0.00 0.04 0.00 76 1003.0
20190120073740 2 338 2.0 15.0 0.00 0.04 0.00 76 1002.7
20190120073611 2 338 5.0 6.0 0.00 0.04 0.00 76 1002.7
20190120072112 2 338 1.0 7.0 0.00 0.04 0.00 76 1002.7
20190120070613 2 338 2.0 5.0 0.00 0.04 0.00 76 1002.7
20190120065111 2 0 0.0 2.0 0.00 0.04 0.00 76 1002.7
20190120064741 2 0 7.0 9.0 0.00 0.04 0.00 76 1002.7
20190120063613 2 338 9.0 10.0 0.00 0.04 0.00 76 1002.8
20190120062113 2 338 2.0 2.0 0.00 0.04 0.00 76 1003.1
20190120061740 3 0 5.0 6.0 0.00 0.04 0.00 76 1003.1
20190120060613 3 338 5.0 8.0 0.00 0.04 0.00 76 1003.3
20190120055112 3 0 1.0 3.0 0.00 0.04 0.00 76 1003.6
20190120053613 3 0 0.0 2.0 0.00 0.04 0.00 76 1003.7
20190120052113 3 338 2.0 6.0 0.00 0.04 0.00 76 1003.3
20190120050612 4 338 2.0 12.0 0.00 0.04 0.00 76 1003.3
20190120045112 4 338 3.0 6.0 0.00 0.04 0.04 76 1003.0
20190120043739 4 315 5.0 7.0 0.00 0.04 0.04 76 1002.7
20190120043613 4 0 1.0 8.0 0.00 0.04 0.04 76 1002.7
20190120042112 5 338 8.0 9.0 0.00 0.04 0.04 76 1002.4
20190120040613 5 338 8.0 12.0 0.00 0.04 0.04 76 1002.3
20190120035112 5 0 6.0 8.0 0.00 0.04 0.04 76 1002.7
20190120033612 6 338 7.0 10.0 0.00 0.04 0.04 76 1002.7
20190120032740 6 0 5.0 7.0 0.00 0.04 0.04 76 1002.7
20190120032113 6 0 2.0 7.0 0.00 0.04 0.04 76 1002.7
20190120030613 6 0 7.0 10.0 0.00 0.04 0.04 76 1002.9
20190120025112 7 315 1.0 5.0 0.00 0.04 0.04 77 1003.0
20190120024741 7 0 5.0 9.0 0.00 0.04 0.04 77 1003.2
20190120023613 7 338 8.0 10.0 0.00 0.04 0.04 77 1003.0
20190120022113 8 0 3.0 12.0 0.00 0.04 0.04 77 1003.3
20190120020611 8 338 5.0 9.0 0.00 0.04 0.04 77 1003.3
20190120015113 9 0 1.0 5.0 0.00 0.04 0.04 77 1003.3
20190120013613 9 0 2.0 6.0 0.02 0.04 0.04 78 1003.7
20190120012112 10 0 2.0 8.0 0.02 0.04 0.04 78 1003.7
20190120010613 11 0 2.0 8.0 0.02 0.04 0.04 79 1003.7
20190120005112 12 0 1.0 5.0 0.02 0.04 0.04 79 1003.8
20190120003613 12 0 2.0 2.0 0.02 0.02 0.02 80 1003.9
20190120002112 13 0 3.0 8.0 0.02 0.02 0.02 80 1004.4
20190120000613 13 0 3.0 6.0 0.02 0.02 0.02 80 1004.0
20190119235112 14 23 0.0 0.0 0.02 0.02 0.02 80 1003.7
20190119233612 14 23 1.0 0.0 0.00 0.00 0.00 80 1003.7
20190119232112 14 0 5.0 9.0 0.00 0.00 0.00 80 1003.7
20190119230611 15 0 7.0 7.0 0.00 0.00 0.00 80 1003.7
20190119225741 17 338 2.0 2.0 0.00 0.00 0.00 82 1003.7
20190119225113 17 338 2.0 2.0 0.00 0.00 0.00 82 1003.7
20190119223612 17 338 2.0 2.0 0.00 0.00 0.00 82 1003.7
20190119222113 17 338 2.0 2.0 0.00 0.00 0.00 82 1003.7
20190119220612 17 338 2.0 2.0 0.00 0.00 0.00 82 1003.3
20190119215113 17 338 2.0 2.0 0.00 0.00 0.00 82 1003.7
20190119213613 17 338 2.0 2.0 0.00 0.00 0.00 82 1003.7
20190119213241 17 338 2.0 2.0 0.00 0.00 0.00 82 1003.7
20190119212112 17 338 2.0 2.0 0.00 0.00 0.00 82 1003.7
20190119210613 17 338 2.0 2.0 0.00 0.00 0.00 82 1003.7
20190119205113 17 338 2.0 2.0 0.00 0.00 0.00 82 1004.0
20190119203613 17 338 2.0 2.0 0.00 0.00 0.00 82 1004.0
20190119202113 17 338 2.0 2.0 0.00 0.00 0.00 82 1004.1
20190119200612 17 338 2.0 2.0 0.00 0.00 0.00 82 1004.4
20190119195112 17 338 2.0 2.0 0.00 0.00 0.00 82 1004.4